{"data":{"norad_id":39773,"epoch":"2026-09-19T19:45:56.300256Z","epoch_age_seconds":80244,"freshness":"FRESH","line1":"1 39773U 14030A   26262.82356829  .00000016  00000+0  00000+0 0  9993","line2":"2 39773   0.0623 352.8541 0004175 182.4004 123.0686  1.00271332 45011","mean_motion":1.00271332,"eccentricity":0.0004175,"inclination_deg":0.0623,"raan_deg":352.8541,"arg_perigee_deg":182.4004,"mean_anomaly_deg":123.0686,"bstar":0,"rev_number":4501,"period_min":1436.1033919446,"perigee_km":35769.1181254,"apogee_km":35804.325782626,"semimajor_km":42164.858954013,"source":"CELESTRAK","updated_at":"2026-09-20T09:00:35.211279Z"}}